Home   Weather   Northampton   Past weeks

Flag for United Kingdom Past Weather in Northampton, England, United Kingdom — Yesterday and Last 2 Weeks

Now
52 °F

Partly cloudy.


Feels Like: 47 °F
Forecast: 50 / 56 °F
Wind: 16 mph from Southwest

Location: Wittering

Current Time: Dec 8, 2016 at 12:27:41 am

Latest Report: Dec 7, 2016 at 11:50 pm


Visibility: N/A

Pressure: 30.21 "Hg

Humidity: 94%

Dew Point: 50 °F

Location of NorthamptonLocation

Past Weather in Northampton — Graph

°F

Northampton Temperature Yesterday

Maximum temperature yesterday: 54 °F (at 12:50 pm)
Minimum temperature yesterday: 48 °F (at 1:50 am)
Average temperature yesterday: 50 °F

High & Low Weather Summary for the Past Weeks

 TemperatureHumidityPressure
High54 °F (Dec 7, 12:50 pm)100% (Nov 23, 12:50 am)30.54 "Hg (Nov 23, 12:50 am)
Low27 °F (Nov 29, 4:50 am)53% (Nov 28, 12:50 pm)29.83 "Hg (Nov 22, 10:50 pm)
Average40 °F89%30.29 "Hg
* Reported Nov 22 10:50 pm — Dec 7 10:50 pm, Northampton, Weather by CustomWeather, © 2016

Note: Actual official high and low records may vary slightly from our data, if they occured in-between our weather recording intervals... More about our weather records

Advertising

Northampton Weather History for the Previous 24 Hours

Scroll right to see more
 ConditionsComfort  
Time TempWeatherWind HumidityBarometerVisibility
10:50 pm
Wed, Dec 7
50 °FPassing clouds.17 mph94%30.21 "HgN/A
9:50 pm50 °FOvercast.13 mph94%30.21 "HgN/A
8:50 pm50 °FPassing clouds.15 mph94%30.18 "HgN/A
7:50 pm50 °FCool.13 mph94%30.18 "HgN/A
6:50 pm50 °FCool.15 mph94%30.18 "HgN/A
5:50 pm50 °FCool.15 mph94%30.18 "HgN/A
4:50 pm50 °FCool.13 mph94%30.18 "HgN/A
3:50 pm52 °FClear.8 mph88%30.18 "Hg10 mi
2:50 pm54 °FBroken clouds.14 mph88%30.18 "HgN/A
1:50 pm54 °FBroken clouds.13 mph88%30.18 "Hg6 mi
12:50 pm54 °FBroken clouds.13 mph88%30.18 "Hg6 mi
11:50 am52 °FPartly sunny.15 mph94%30.21 "Hg4 mi
10:50 am52 °FPartly sunny.13 mph94%30.21 "Hg3 mi
9:50 am50 °FFog.15 mph94%30.21 "Hg2 mi
8:50 am48 °FFog.15 mph100%30.21 "Hg2 mi
7:50 am48 °FFog.13 mph100%30.21 "Hg2 mi
6:50 am48 °FFog.12 mph100%30.18 "Hg2 mi
5:50 am48 °FFog.14 mph100%30.21 "Hg1 mi
4:50 am48 °FFog.13 mph100%30.21 "Hg1 mi
3:50 am48 °FFog.10 mph100%30.21 "Hg2 mi
2:50 am48 °FFog.13 mph100%30.24 "Hg2 mi
1:50 am48 °FFog.13 mph100%30.24 "Hg1 mi
Weather by CustomWeather, © 2016

See weather overviewHow to use our weather pages